Regional Weather Roundup
Issued by NWS

Home | Current Version | Previous Version | Graphics & Text | Print | Product List | Glossary On
Versions: 1 2 3 4 5 6 7 8 9 10 11 12 13 14 15 16 17 18 19 20 21 22 23 24 25 26 27 28 29 30 31 32 33 34 35 36 37 38 39 40 41 42 43 44 45 46 47 48 49
000
ASUS45 KBOU 281007
RWRCO

WEATHER ROUNDUP FOR COLORADO
NATIONAL WEATHER SERVICE DENVER/BOULDER CO
300 AM MST WED JAN 28 2015

NOTE: "FAIR" INDICATES FEW OR NO CLOUDS BELOW 12000 FEET WITH NO
SIGNIFICANT WEATHER AND/OR OBSTRUCTIONS TO VISIBILITY.

COZ001>005-013-030-031-281100-
...NORTHWEST COLORADO...

CITY           SKY/WX    TMP DP  RH WIND       PRES   REMARKS
CRAIG          CLOUDY    37  33  85 S13       30.21S
HAYDEN         CLOUDY    36  30  80 SE5       30.22S
MEEKER         PTCLDY    38  30  73 W7        30.22S
MOUNT WERNER   NOT AVBL
STEAMBOAT SPGS CLOUDY    31  27  85 NE5       30.21F WCI  26
WALDEN         CLOUDY    34  27  75 SE10G20   30.17F WCI  26
$$

COZ006>008-011-281100-
...WEST CENTRAL VALLEYS...

CITY           SKY/WX    TMP DP  RH WIND       PRES   REMARKS
GRAND JUNCTION CLEAR     31  26  82 E6        30.25R WCI  25
MONTROSE       MOCLDY    33  27  78 SE9       30.28R WCI  25
EAGLE          CLOUDY    30  27  86 CALM      30.26R
RIFLE          PTCLDY    30  25  81 CALM      30.26R
DELTA          PTCLDY    31  27  83 CALM      30.27S
NUCLA          CLOUDY    34  30  86 SE5       30.31S WCI  30
$$

COZ017>023-064>068-281100-
...SOUTHWEST COLORADO...

CITY           SKY/WX    TMP DP  RH WIND       PRES   REMARKS
DURANGO        CLOUDY    32  28  85 NE3       30.28S
CORTEZ         PTCLDY    30  27  88 E7        30.28S WCI  23
PAGOSA SPRINGS CLOUDY    31  30  94 CALM      30.29S
TELLURIDE      MOCLDY   N/A N/A N/A SE5       30.33S
WOLF CREEK PAS NOT AVBL
$$

COZ009-010-012-014-032>034-037-058>063-281100-
...CENTRAL COLORADO...

CITY           SKY/WX    TMP DP  RH WIND       PRES   REMARKS
ASPEN          PTCLDY    28  21  75 S3        30.24R
BUENA VISTA    CLOUDY    41  21  45 W24G31    30.18F
COPPER MTN     PTCLDY    27  14  59 SW18G28   30.27F WCI  13
BERTHOUD PASS  HAZE      18  12  79 NW30G40   30.21S VSB 1/4 WCI  -2
COTTONWOOD PAS PTCLDY    37  19  48 W23G38    30.19S
GUNNISON       MOCLDY     9  -2  61 CALM      30.33F
KREMMLING      CLOUDY    19  14  79 CALM      30.23R
LEADVILLE      PTCLDY    29  16  58 NW12G20   30.23F WCI  19
MONARCH PASS   CLOUDY    23  19  86 W39       30.38S WCI   3
SALIDA         PTCLDY    45  20  37 SW23G39   30.23F
SUNLIGHT       PTCLDY    28  25  86 CALM        N/A
WILKERSON PASS PTCLDY    25  16  68 SW9G20    30.20F WCI  15
$$

COZ069>075-281100-
...SAN LUIS VALLEY/SANGRE DE CRISTO MOUNTAINS...

CITY           SKY/WX    TMP DP  RH WIND       PRES   REMARKS
ALAMOSA        CLOUDY    16  11  80 W7        30.24S WCI   6
LA VETA PASS   NOT AVBL
SAGUACHE       PTCLDY    32  27  80 NW12      30.26S WCI  23
$$

COZ035-036-038>040-281100-
...NORTHERN COLORADO FRONT RANGE...

CITY           SKY/WX    TMP DP  RH WIND       PRES   REMARKS
DENVER INTL AP MOCLDY    44  24  45 SW12      30.00S
DMNS CITY PARK   N/A     43  22  43 W2        30.00S
AURORA         PTCLDY    46  21  36 SW5       30.02S
FRONT RANGE AP NOT AVBL
ERIE MUNI ARPT MOCLDY    52  20  28 W9        29.99F
BOULDER MUN AP MOCLDY    52  23  32 W7        29.98F
CENTENNIAL     MOCLDY    43  20  39 S3        30.02S
BROOMFIELD     MOCLDY    52  23  32 W32G41    29.99F
FORT COLLINS   CLOUDY    45  23  42 SW6       29.99F
LONGMONT       CLOUDY    57  20  23 W16G24    29.99F
$$

COZ041-046-047-076>085-087-088-281100-
...PIKES PEAK/PALMER DIVIDE AND SOUTHERN FOOTHILLS...

CITY           SKY/WX    TMP DP  RH WIND       PRES   REMARKS
COLO. SPRINGS  MOCLDY    50  18  28 NW17      30.01S
A. F. ACADEMY  MOCLDY    48  17  28 N16G30    30.03F
ELLICOTT       MOCLDY   N/A N/A N/A N7        30.00F
FALCON         MOCLDY    47  16  28 NW25G32   30.04F
FORT CARSON    MOCLDY    39  22  51 NW6       29.99S
LIMON          PTCLDY    37  25  61 CALM      29.98S
MONUMENT HILL  MOCLDY    37  21  52 W13       30.05S
TRINIDAD       MOCLDY    39  27  62 W13       30.02F
$$

COZ042>045-048>051-090-091-281100-
...NORTHEAST COLORADO...

CITY           SKY/WX    TMP DP  RH WIND       PRES   REMARKS
GREELEY ARPT   CLOUDY    30  23  74 NE5       29.96S WCI  25
AKRON          PTCLDY    41  27  57 NW16      29.95F
BURLINGTON     PTCLDY    38  29  70 NW16      29.90R
WRAY           PTCLDY    39  30  69 NW6       29.90S
STERLING       PTCLDY    34  30  86 W3        29.95S
HOLYOKE        PTCLDY    45  30  57 NW13      29.91S
FORT MORGAN    PTCLDY    37  28  69 W7        29.96S
$$

COZ086-089-092>099-281100-
...SOUTHEAST COLORADO...

CITY           SKY/WX    TMP DP  RH WIND       PRES   REMARKS
PUEBLO         MOCLDY    55  22  27 W22G30    29.96S
LA JUNTA       PTCLDY    48  29  47 W16       29.95S
LAMAR          CLEAR     37  32  82 SW7       29.91S
SPRINGFIELD      N/A     47  30  51 W14       29.94F
$$



USA.gov is the U.S. government's official web portal to all federal, state and local government web resources and services.